CYGW

Kuujjuarapik Airport

ICAO Code CYGW
IATA Code YGW
Name Kuujjuarapik Airport
Location Kuujjuarapik, Quebec, CA
Elevation 40 Feet / 12.2 Meters
Latitude 55.28194444
Longitude -77.76527778
METAR CYGW 182200Z AUTO 34004KT 300V020 9SM CLR 23/12 A2983 RMK SLP105 DENSITY ALT 1100FT
Extra information Display NOTAMS
Display Charts
Runway Length Width Surface Elevation
03 5082 ft 150 ft GRAVEL 39 ft
21 5082 ft 150 ft GRAVEL 33 ft

Mandatory Routes

Kuujjuarapik Airport

Direction Destination Level Remark Type Route
DEP TO CYUL H RNAV OBRET